GW1213 Weather Reports


time (UTC)temp
F
wind
direction
speed
knots
gust
knots
rain 1hr
in
rain 24hr
in
rain mn
in
humidity
%
barometer
mb
20260902181037 92 101 0.9 7.0 0.00 0.00 0.00 65 1016.5
20260902180537 92 68 1.7 7.0 0.00 0.00 0.00 63 1016.6
20260902180104 92 22 1.7 5.2 0.00 0.00 0.00 63 1016.7
20260902175539 92 81 0.9 4.3 0.00 0.00 0.00 61 1016.8
20260902175043 93 34 1.7 4.3 0.00 0.00 0.00 63 1016.8
20260902174601 92 30 0.0 5.2 0.00 0.00 0.00 62 1016.9
20260902174034 92 153 0.9 6.1 0.00 0.00 0.00 62 1016.9
20260902173535 92 57 0.9 6.1 0.00 0.00 0.00 63 1016.9
20260902173119 92 355 0.9 4.3 0.00 0.00 0.00 62 1017.0
20260902172538 92 48 1.7 4.3 0.00 0.00 0.00 64 1017.0
20260902172041 92 53 1.7 4.3 0.00 0.00 0.00 63 1016.9
20260902171606 92 137 0.9 3.5 0.00 0.00 0.00 62 1017.0
20260902171039 91 70 1.7 4.3 0.00 0.00 0.00 63 1017.1
20260902170537 91 51 1.7 4.3 0.00 0.00 0.00 62 1017.1
20260902165538 91 51 1.7 7.0 0.00 0.00 0.00 64 1017.2
20260902165036 91 69 0.9 4.3 0.00 0.00 0.00 64 1017.3
20260902164606 91 0 0.0 7.0 0.00 0.00 0.00 63 1017.3
20260902164035 91 52 1.7 7.0 0.00 0.00 0.00 64 1017.2
20260902163535 91 54 1.7 7.0 0.00 0.00 0.00 65 1017.2
20260902163053 91 47 0.0 3.5 0.00 0.00 0.00 64 1017.3
20260902162539 91 64 0.9 4.3 0.00 0.00 0.00 62 1017.2
20260902162038 91 147 2.6 4.3 0.00 0.00 0.00 63 1017.3
20260902161603 91 188 0.9 3.5 0.00 0.00 0.00 61 1017.3
20260902161036 91 70 0.0 2.6 0.00 0.00 0.00 64 1017.2
20260902160537 90 0 0.0 2.6 0.00 0.00 0.00 63 1017.2
20260902160057 90 0 0.0 2.6 0.00 0.00 0.00 64 1017.2
20260902155535 90 0 0.9 6.1 0.00 0.00 0.00 64 1017.2
20260902155038 90 72 1.7 6.1 0.00 0.00 0.00 64 1017.1
20260902154558 90 55 0.0 5.2 0.00 0.00 0.00 64 1017.2
20260902154035 89 59 0.9 6.1 0.00 0.00 0.00 65 1017.2
20260902153537 90 105 1.7 7.0 0.00 0.00 0.00 66 1017.2
20260902153107 90 71 1.7 7.0 0.00 0.00 0.00 66 1017.2
20260902152541 89 0 0.0 3.5 0.00 0.00 0.00 65 1017.2
20260902152039 89 76 0.9 3.5 0.00 0.00 0.00 66 1017.3
20260902151602 89 0 0.0 3.5 0.00 0.00 0.00 67 1017.3
20260902151037 88 52 0.9 3.5 0.00 0.00 0.00 68 1017.2
20260902150538 88 9 0.0 4.3 0.00 0.00 0.00 68 1017.3
20260902150101 88 0 0.9 4.3 0.00 0.00 0.00 68 1017.4
20260902145539 88 123 0.9 4.3 0.00 0.00 0.00 69 1017.4
20260902145038 88 72 0.9 3.5 0.00 0.00 0.00 68 1017.4
20260902144602 88 76 0.9 4.3 0.00 0.00 0.00 69 1017.4
20260902144038 87 43 0.9 4.3 0.00 0.00 0.00 70 1017.4
20260902143540 87 343 0.0 1.7 0.00 0.00 0.00 71 1017.4
20260902143103 87 0 0.0 1.7 0.00 0.00 0.00 72 1017.4
20260902142537 87 0 0.0 1.7 0.00 0.00 0.00 72 1017.4
20260902142038 86 33 0.0 1.7 0.00 0.00 0.00 73 1017.3
20260902141558 87 0 0.0 1.7 0.00 0.00 0.00 72 1017.1
20260902141037 87 0 0.0 1.7 0.00 0.00 0.00 72 1017.2
20260902140535 86 52 0.0 1.7 0.00 0.00 0.00 74 1017.1
20260902140057 86 0 0.0 1.7 0.00 0.00 0.00 74 1017.2
20260902135535 86 0 0.0 2.6 0.00 0.00 0.00 75 1017.3
20260902135035 85 0 0.0 2.6 0.00 0.00 0.00 75 1017.2
20260902134610 85 0 0.0 0.0 0.00 0.00 0.00 76 1017.1
20260902134038 85 0 0.0 0.0 0.00 0.00 0.00 76 1017.1
20260902133538 85 0 0.0 0.0 0.00 0.00 0.00 77 1017.1
20260902133104 84 0 0.0 0.0 0.00 0.00 0.00 78 1017.1
20260902132535 84 0 0.0 0.0 0.00 0.00 0.00 77 1017.1
20260902132038 84 0 0.0 2.6 0.00 0.00 0.00 78 1017.0
20260902131559 83 0 0.0 2.6 0.00 0.00 0.00 79 1017.0
20260902131036 83 55 0.0 2.6 0.00 0.00 0.00 80 1016.9
20260902130537 83 0 0.0 0.0 0.00 0.00 0.00 80 1017.0
20260902130107 83 0 0.0 0.0 0.00 0.00 0.00 80 1016.9
20260902125538 82 0 0.0 0.0 0.00 0.00 0.00 80 1016.9
20260902125037 82 0 0.0 0.0 0.00 0.00 0.00 81 1016.9
20260902124554 82 0 0.0 0.0 0.00 0.00 0.00 81 1017.0
20260902124038 81 0 0.0 0.0 0.00 0.00 0.00 81 1016.8
20260902123536 81 0 0.0 0.0 0.00 0.00 0.00 82 1016.8
20260902123109 80 0 0.0 0.0 0.00 0.00 0.00 83 1017.0
20260902122538 80 0 0.0 0.0 0.00 0.00 0.00 84 1017.0
20260902122035 79 0 0.0 0.0 0.00 0.00 0.00 85 1017.0
20260902121558 79 0 0.0 0.0 0.00 0.00 0.00 86 1017.0
20260902121035 79 0 0.0 0.0 0.00 0.00 0.00 87 1017.2
20260902120535 78 0 0.0 0.0 0.00 0.00 0.00 90 1017.1
20260902120057 77 0 0.0 0.0 0.00 0.00 0.00 91 1017.1
20260902115537 77 0 0.0 0.0 0.00 0.00 0.00 91 1017.1
20260902115035 76 0 0.0 0.0 0.00 0.00 0.00 93 1017.0
20260902114600 75 0 0.0 0.0 0.00 0.00 0.00 93 1017.0
20260902114035 75 0 0.0 0.0 0.00 0.00 0.00 94 1017.0
20260902113535 75 0 0.0 0.0 0.00 0.00 0.00 94 1017.0
20260902113101 75 0 0.0 0.0 0.00 0.00 0.00 94 1017.0
20260902112536 75 0 0.0 0.0 0.00 0.00 0.00 93 1017.0
20260902112036 75 0 0.0 0.0 0.00 0.00 0.00 93 1017.0
20260902111602 75 0 0.0 0.0 0.00 0.00 0.00 93 1017.0
20260902111037 75 0 0.0 0.0 0.00 0.00 0.00 93 1017.0
20260902110538 75 0 0.0 0.0 0.00 0.00 0.00 93 1017.0
20260902110105 75 0 0.0 0.0 0.00 0.00 0.00 93 1016.8
20260902105535 75 0 0.0 0.0 0.00 0.00 0.00 93 1016.9
20260902105035 75 0 0.0 0.0 0.00 0.00 0.00 93 1016.9
20260902104610 75 0 0.0 0.0 0.00 0.00 0.00 93 1016.8
20260902104036 75 0 0.0 0.0 0.00 0.00 0.00 92 1016.8
20260902103537 75 0 0.0 0.0 0.00 0.00 0.00 92 1016.8
20260902103119 75 0 0.0 0.0 0.00 0.00 0.00 92 1016.7
20260902102536 75 0 0.0 0.0 0.00 0.00 0.00 90 1016.7
20260902102036 75 0 0.0 0.0 0.00 0.00 0.00 91 1016.6
20260902101606 75 0 0.0 0.0 0.00 0.00 0.00 91 1016.4
20260902101035 75 0 0.0 0.0 0.00 0.00 0.00 91 1016.4
20260902100536 75 0 0.0 0.0 0.00 0.00 0.00 90 1016.4
20260902100056 76 0 0.0 0.0 0.00 0.00 0.00 90 1016.4
20260902095536 76 0 0.0 0.0 0.00 0.00 0.00 91 1016.3
20260902095038 76 0 0.0 0.0 0.00 0.00 0.00 91 1016.3
20260902094601 76 0 0.0 0.0 0.00 0.00 0.00 92 1016.3
20260902094035 76 0 0.0 0.0 0.00 0.00 0.00 92 1016.3
20260902093538 76 0 0.0 0.0 0.00 0.00 0.00 92 1016.2
20260902093100 76 0 0.0 0.0 0.00 0.00 0.00 92 1016.1
20260902092536 76 0 0.0 0.0 0.00 0.00 0.00 93 1016.1
20260902092035 76 0 0.0 0.0 0.00 0.00 0.00 93 1016.1
20260902091556 76 0 0.0 0.0 0.00 0.00 0.00 93 1016.2
20260902091038 76 0 0.0 0.0 0.00 0.00 0.00 93 1016.1
20260902090538 76 0 0.0 0.0 0.00 0.00 0.00 93 1016.2
20260902090058 76 0 0.0 0.0 0.00 0.00 0.00 93 1016.2
20260902085537 76 0 0.0 0.0 0.00 0.00 0.00 93 1016.2
20260902085035 76 0 0.0 0.0 0.00 0.00 0.00 93 1016.2
20260902084559 76 0 0.0 0.0 0.00 0.00 0.00 93 1016.2
20260902084036 76 0 0.0 0.0 0.00 0.00 0.00 93 1016.1
20260902083539 76 0 0.0 0.0 0.00 0.00 0.00 93 1016.0
20260902083057 76 0 0.0 0.0 0.00 0.00 0.00 92 1016.0
20260902082535 76 0 0.0 0.0 0.00 0.00 0.00 92 1016.0
20260902082035 76 0 0.0 0.0 0.00 0.00 0.00 93 1016.0
20260902081603 76 0 0.0 0.0 0.00 0.00 0.00 92 1016.0
20260902081038 76 0 0.0 0.0 0.00 0.00 0.00 92 1016.0
20260902080538 76 0 0.0 0.0 0.00 0.00 0.00 92 1016.1
20260902075538 76 0 0.0 0.0 0.00 0.00 0.00 93 1016.1
20260902075035 76 0 0.0 0.0 0.00 0.00 0.00 93 1016.1
20260902074600 76 0 0.0 0.0 0.00 0.00 0.00 93 1016.0
20260902074035 76 0 0.0 0.0 0.00 0.00 0.00 93 1016.1
20260902073535 76 0 0.0 0.0 0.00 0.00 0.00 93 1016.1
20260902073108 77 0 0.0 0.0 0.00 0.00 0.00 94 1016.1
20260902072538 77 0 0.0 0.0 0.00 0.00 0.00 93 1016.1
20260902072041 77 0 0.0 0.0 0.00 0.00 0.00 93 1016.1
20260902071557 77 0 0.0 0.0 0.00 0.00 0.00 93 1016.1
20260902071038 77 0 0.0 0.0 0.00 0.00 0.00 93 1016.0
20260902070535 77 0 0.0 0.0 0.00 0.00 0.00 93 1015.9
20260902070103 77 0 0.0 0.0 0.00 0.00 0.00 93 1015.9
20260902065539 77 0 0.0 0.0 0.00 0.00 0.00 93 1016.0
20260902065038 77 0 0.0 0.0 0.00 0.00 0.00 93 1016.0
20260902064605 77 0 0.0 0.0 0.00 0.00 0.00 93 1015.9
20260902064041 77 0 0.0 0.0 0.00 0.00 0.00 93 1015.8
20260902063537 77 0 0.0 0.0 0.00 0.00 0.00 93 1015.7
20260902063109 77 0 0.0 0.0 0.00 0.00 0.00 93 1015.8
20260902062538 77 0 0.0 0.0 0.00 0.00 0.00 92 1015.8
20260902062039 77 0 0.0 0.0 0.00 0.00 0.00 93 1015.8
20260902061620 77 0 0.0 0.0 0.00 0.00 0.00 93 1015.7
20260902061044 77 0 0.0 0.0 0.00 0.00 0.00 93 1015.7
20260902060537 78 0 0.0 0.0 0.00 0.00 0.00 93 1015.7
20260902060109 78 0 0.0 0.0 0.00 0.00 0.00 93 1015.6
20260902055537 78 0 0.0 0.0 0.00 0.00 0.00 93 1015.6
20260902055036 78 0 0.0 0.0 0.00 0.00 0.00 93 1015.6
20260902054559 78 0 0.0 0.0 0.00 0.00 0.00 93 1015.5
20260902054037 78 0 0.0 0.0 0.00 0.00 0.00 93 1015.4
20260902053536 78 0 0.0 0.0 0.00 0.00 0.00 93 1015.5
20260902053102 78 0 0.0 0.0 0.00 0.00 0.00 92 1015.4
20260902052534 78 0 0.0 0.0 0.00 0.00 0.00 93 1015.5
20260902052036 78 0 0.0 0.0 0.00 0.00 0.00 92 1015.5
20260902051615 78 0 0.0 0.0 0.00 0.00 0.00 92 1015.6
20260902051036 78 0 0.0 0.0 0.00 0.00 0.00 92 1015.5
20260902050536 78 0 0.0 0.0 0.00 0.00 0.00 92 1015.5
20260902050107 78 0 0.0 0.0 0.00 0.00 0.00 92 1015.6
20260902045535 78 0 0.0 0.0 0.00 0.00 0.00 92 1015.7
20260902045037 78 0 0.0 0.0 0.00 0.00 0.00 92 1015.7
20260902044626 79 0 0.0 0.0 0.00 0.00 0.00 92 1015.6
20260902044035 79 0 0.0 0.0 0.00 0.00 0.00 92 1015.6
20260902043535 79 0 0.0 0.0 0.00 0.00 0.00 92 1015.7
20260902043056 79 0 0.0 0.0 0.00 0.00 0.00 91 1015.7
20260902042535 79 0 0.0 0.0 0.00 0.00 0.00 92 1015.7
20260902042037 79 0 0.0 0.0 0.00 0.00 0.00 92 1015.7
20260902041604 79 0 0.0 0.0 0.00 0.00 0.00 92 1015.7
20260902041034 79 0 0.0 0.0 0.00 0.00 0.00 92 1015.6
20260902040536 79 0 0.0 0.0 0.00 0.00 0.00 91 1015.5
20260902040104 79 0 0.0 0.0 0.00 0.00 0.00 91 1015.5
20260902035535 79 0 0.0 0.0 0.00 0.00 0.00 91 1015.5
20260902035035 79 0 0.0 0.0 0.00 0.00 0.00 91 1015.4
20260902034601 79 0 0.0 0.0 0.00 0.00 0.00 91 1015.3
20260902034035 79 0 0.0 0.0 0.00 0.00 0.00 91 1015.3
20260902033536 79 0 0.0 0.0 0.00 0.00 0.00 90 1015.3
20260902033104 79 0 0.0 0.0 0.00 0.00 0.00 90 1015.2
20260902032535 79 0 0.0 0.0 0.00 0.00 0.00 90 1015.1
20260902032036 79 0 0.0 0.0 0.00 0.00 0.00 90 1015.1
20260902031619 80 0 0.0 0.0 0.00 0.00 0.00 90 1015.1
20260902031036 80 0 0.0 0.0 0.00 0.00 0.00 90 1014.9
20260902030541 80 0 0.0 0.0 0.00 0.00 0.00 89 1015.0
20260902025537 80 0 0.0 0.0 0.00 0.00 0.00 89 1015.1
20260902025036 80 0 0.0 0.0 0.00 0.00 0.00 89 1015.1
20260902024602 80 0 0.0 0.0 0.00 0.00 0.00 89 1015.1
20260902024035 80 0 0.0 0.0 0.00 0.00 0.00 88 1015.2
20260902023536 80 0 0.0 0.0 0.00 0.00 0.00 88 1015.1
20260902023106 80 0 0.0 0.0 0.00 0.00 0.00 88 1015.0
20260902022535 81 0 0.0 0.0 0.00 0.00 0.00 88 1014.9
20260902022034 81 0 0.0 0.0 0.00 0.00 0.00 88 1014.9
20260902021603 81 0 0.0 0.0 0.00 0.00 0.00 87 1014.8
20260902021035 81 0 0.0 0.0 0.00 0.00 0.00 86 1014.8
20260902020539 81 0 0.0 0.0 0.00 0.00 0.00 86 1014.7
20260902020101 81 0 0.0 0.0 0.00 0.00 0.00 87 1014.8
20260902015537 81 0 0.0 0.0 0.00 0.00 0.00 87 1014.8
20260902015036 81 0 0.0 0.0 0.00 0.00 0.00 86 1014.8
20260902014606 81 0 0.0 0.0 0.00 0.00 0.00 86 1014.6
20260902014039 81 0 0.0 0.0 0.00 0.00 0.00 84 1014.5
20260902013535 82 0 0.0 0.0 0.00 0.00 0.00 84 1014.5
20260902013112 82 0 0.0 0.0 0.00 0.00 0.00 84 1014.4
20260902012535 82 0 0.0 0.0 0.00 0.00 0.00 85 1014.4
20260902012038 82 0 0.0 0.0 0.00 0.00 0.00 84 1014.2
20260902011603 82 0 0.0 0.0 0.00 0.00 0.00 83 1014.2
20260902011039 82 0 0.0 0.0 0.00 0.00 0.00 83 1014.1
20260902010537 82 0 0.0 0.0 0.00 0.00 0.00 83 1014.0
20260902010105 83 0 0.0 0.0 0.00 0.00 0.00 83 1013.8
20260902005536 83 0 0.0 0.0 0.00 0.00 0.00 82 1013.7
20260902005036 83 0 0.0 0.0 0.00 0.00 0.00 82 1013.6
20260902004559 83 0 0.0 0.0 0.00 0.00 0.00 81 1013.6
20260902004036 84 0 0.0 0.0 0.00 0.00 0.00 81 1013.5
20260902003535 84 0 0.0 0.0 0.00 0.00 0.00 81 1013.4
20260902003106 84 0 0.0 0.0 0.00 0.00 0.00 79 1013.3
20260902002535 85 0 0.0 0.0 0.00 0.00 0.00 78 1013.2
20260902002039 85 0 0.0 0.0 0.00 0.00 0.00 77 1013.2
20260902001602 86 0 0.0 0.0 0.00 0.00 0.00 76 1013.2
20260902001038 86 0 0.0 0.0 0.00 0.00 0.00 74 1013.2
20260902000538 86 0 0.0 0.0 0.00 0.00 0.00 72 1013.1
20260902000055 87 0 0.0 0.0 0.00 0.00 0.00 72 1013.2
20260901235538 87 0 0.0 0.0 0.00 0.00 0.00 71 1013.3
20260901235037 88 0 0.0 0.0 0.00 0.00 0.00 71 1013.3
20260901234606 88 0 0.0 0.0 0.00 0.00 0.00 70 1013.2
20260901234035 89 0 0.0 0.0 0.00 0.00 0.00 70 1013.2
20260901233535 90 0 0.0 0.0 0.00 0.00 0.00 64 1013.1
20260901233105 91 0 0.0 0.0 0.00 0.00 0.00 63 1013.2
20260901232536 91 0 0.0 0.0 0.00 0.00 0.00 61 1013.2
20260901232036 91 0 0.0 0.0 0.00 0.00 0.00 59 1013.3
20260901231615 91 0 0.0 0.0 0.00 0.00 0.00 58 1013.3
20260901231035 92 0 0.0 0.9 0.00 0.00 0.00 58 1013.2
20260901230538 92 0 0.0 2.6 0.00 0.00 0.00 57 1013.2
20260901230109 92 0 0.0 2.6 0.00 0.00 0.00 56 1013.4
20260901225537 92 0 0.0 3.5 0.00 0.00 0.00 55 1013.4
20260901225037 93 0 0.9 4.3 0.00 0.00 0.00 55 1013.5
20260901224554 93 216 1.7 4.3 0.00 0.00 0.00 55 1013.5
20260901224036 93 0 0.0 2.6 0.00 0.00 0.00 54 1013.6
20260901223539 93 180 0.0 1.7 0.00 0.00 0.00 54 1013.6
20260901223101 93 276 0.0 4.3 0.00 0.00 0.00 54 1013.7
20260901222536 93 0 0.0 4.3 0.00 0.00 0.00 55 1013.7
20260901222039 93 199 0.9 4.3 0.00 0.00 0.00 53 1013.7
20260901221612 94 229 0.9 3.5 0.00 0.00 0.00 52 1013.7
20260901221038 94 0 0.0 2.6 0.00 0.00 0.00 53 1013.8
20260901220535 94 205 0.0 5.2 0.00 0.00 0.00 53 1013.8
20260901220059 94 215 1.7 5.2 0.00 0.00 0.00 54 1013.8
20260901215535 94 247 0.0 3.5 0.00 0.00 0.00 55 1013.8
20260901215038 94 207 0.9 3.5 0.00 0.00 0.00 54 1013.9
20260901214605 94 271 0.0 6.1 0.00 0.00 0.00 55 1013.9
20260901214037 94 215 0.9 6.1 0.00 0.00 0.00 54 1013.8
20260901213541 95 0 0.9 5.2 0.00 0.00 0.00 54 1013.9
20260901213057 95 181 0.9 5.2 0.00 0.00 0.00 56 1013.9
20260901212537 95 0 0.0 6.1 0.00 0.00 0.00 54 1013.9
20260901212037 95 270 1.7 7.0 0.00 0.00 0.00 53 1013.9
20260901211600 96 128 2.6 7.0 0.00 0.00 0.00 53 1013.9
20260901211038 96 223 1.7 7.0 0.00 0.00 0.00 52 1013.9
20260901210538 96 236 1.7 6.1 0.00 0.00 0.00 52 1013.9
20260901210058 97 220 1.7 6.1 0.00 0.00 0.00 53 1013.9
20260901205538 97 178 0.9 3.5 0.00 0.00 0.00 52 1013.9
20260901205038 97 0 0.9 3.5 0.00 0.00 0.00 52 1013.9
20260901204557 97 130 0.0 3.5 0.00 0.00 0.00 53 1014.0
20260901204035 97 200 0.0 3.5 0.00 0.00 0.00 51 1014.1
20260901203539 98 287 0.0 6.1 0.00 0.00 0.00 52 1014.1
20260901203105 98 0 0.9 6.1 0.00 0.00 0.00 53 1014.1
20260901202536 98 223 0.9 5.2 0.00 0.00 0.00 51 1014.2
20260901202038 98 0 0.0 2.6 0.00 0.00 0.00 52 1014.3
20260901201600 98 0 0.0 4.3 0.00 0.00 0.00 53 1014.3
20260901201039 97 298 0.9 4.3 0.00 0.00 0.00 51 1014.3
20260901200537 97 146 0.0 2.6 0.00 0.00 0.00 52 1014.5
20260901200059 97 0 0.0 2.6 0.00 0.00 0.00 51 1014.4
20260901195537 97 222 0.9 2.6 0.00 0.00 0.00 53 1014.4
20260901195036 97 92 0.0 2.6 0.00 0.00 0.00 54 1014.5
20260901194602 97 0 0.0 3.5 0.00 0.00 0.00 52 1014.6
20260901194036 97 280 0.0 3.5 0.00 0.00 0.00 53 1014.8
20260901193536 97 259 0.9 3.5 0.00 0.00 0.00 52 1014.9
20260901193053 97 0 0.0 2.6 0.00 0.00 0.00 54 1015.0
20260901192537 97 0 0.9 2.6 0.00 0.00 0.00 53 1015.1
20260901192038 97 0 0.0 3.5 0.00 0.00 0.00 54 1015.1
20260901191600 96 196 0.9 3.5 0.00 0.00 0.00 54 1015.2
20260901191036 96 238 0.0 2.6 0.00 0.00 0.00 53 1015.3
20260901190537 96 0 0.0 2.6 0.00 0.00 0.00 54 1015.2
20260901190058 96 294 0.9 2.6 0.00 0.00 0.00 56 1015.2
20260901185538 96 267 0.0 4.3 0.00 0.00 0.00 54 1015.2
20260901185037 96 360 0.0 4.3 0.00 0.00 0.00 55 1015.1
20260901184603 96 225 0.9 4.3 0.00 0.00 0.00 52 1015.1
20260901184035 97 0 0.9 5.2 0.00 0.00 0.00 54 1015.0
20260901183537 97 329 0.9 5.2 0.00 0.00 0.00 54 1015.1
20260901183120 96 248 0.0 3.5 0.00 0.00 0.00 52 1015.2
20260901182535 96 0 0.9 3.5 0.00 0.00 0.00 56 1015.2
20260901182035 96 265 0.9 3.5 0.00 0.00 0.00 53 1015.2
20260901181603 95 255 0.0 3.5 0.00 0.00 0.00 57 1015.2